Regional Weather Roundup
Issued by NWS

Home | Current Version | Previous Version | Graphics & Text | Print | Product List | Glossary Off
Versions: 1 2 3 4 5 6 7 8 9 10 11 12 13 14 15 16 17 18 19 20 21 22 23 24 25 26 27 28 29 30 31 32 33 34 35 36 37 38 39 40 41 42 43 44 45 46 47 48 49 50

000
ASUS43 KMKX 040011
RWRWI

WISCONSIN REGIONAL WEATHER ROUNDUP
NATIONAL WEATHER SERVICE MILWAUKEE/SULLIVAN WI
700 PM CDT TUE MAY 03 2016

NOTE: "FAIR" INDICATES FEW OR NO CLOUDS BELOW 12,000 FEET WITH NO
SIGNIFICANT WEATHER AND/OR OBSTRUCTIONS TO VISIBILITY.

WIZ001-002-006>008-014>016-023>028-040100-
NORTHWEST WISCONSIN

CITY           SKY/WX    TMP DP  RH WIND       PRES   REMARKS
SUPERIOR ARPT  SUNNY     65  29  26 N14G23    29.71R
6HR MIN TEMP:  63; 6HR MAX TEMP:  72;

ASHLAND        MOSUNNY   57  38  48 NE12      29.71R
6HR MIN TEMP:  55; 6HR MAX TEMP:  69;

HAYWARD        PTSUNNY   63  28  26 N18G29    29.68R
6HR MIN TEMP:  60; 6HR MAX TEMP:  67; 6HR PCP:  0.01;

SIREN          MOSUNNY   67  24  20 N17G26    29.68R
6HR MIN TEMP:  63; 6HR MAX TEMP:  71;

CUMBERLAND     MOSUNNY   63  30  29 N18G25    29.66R
RICE LAKE      SUNNY     67  28  23 N16G22    29.67R
6HR MIN TEMP:  59; 6HR MAX TEMP:  69;

CHETEK         MOSUNNY   62  48  60 NE5       29.66R
6HR MIN TEMP:  56; 6HR MAX TEMP:  69; 6HR PCP:  0.01;

LADYSMITH      SUNNY     57  47  70 E5        29.68R
6HR MIN TEMP:  54; 6HR MAX TEMP:  66; 6HR PCP:  0.06;

EAU CLAIRE     CLOUDY    56  49  77 CALM      29.64S
6HR MIN TEMP:  54; 6HR MAX TEMP:  70; 6HR PCP:  0.15;

MENOMONIE      PTSUNNY   62  41  46 W8        29.65S
6HR MIN TEMP:  62; 6HR MAX TEMP:  71;

NEW RICHMOND   MOSUNNY   68  29  23 N16G23    29.66F
6HR MIN TEMP:  66; 6HR MAX TEMP:  70;

OSCEOLA        MOSUNNY   69  29  22 N14G24    29.69R
6HR MIN TEMP:  67; 6HR MAX TEMP:  72;

$$

WIZ003>005-009-010-017-018-040100-
NORTH CENTRAL WISCONSIN

CITY           SKY/WX    TMP DP  RH WIND       PRES   REMARKS
MANITOWISH WTR PTSUNNY   53  37  55 N6        29.68S
6HR MIN TEMP:  47; 6HR MAX TEMP:  56; 6HR PCP:  0.05;

ARBOR VITAE    PTSUNNY   55  42  63 N10       29.68S
6HR MIN TEMP:  52; 6HR MAX TEMP:  60; 6HR PCP:  0.04;

WOODRUFF       PTSUNNY   55  42  63 N10       29.68S
6HR MIN TEMP:  52; 6HR MAX TEMP:  60; 6HR PCP:  0.04;

RHINELANDER    CLOUDY    51  43  74 W5        29.68F
6HR MIN TEMP:  50; 6HR MAX TEMP:  63; 6HR PCP:  0.10;

EAGLE RIVER    CLOUDY    50  41  71 N3        29.68S
LAND O LAKES   PTSUNNY   51  39  64 N9        29.69F
6HR MIN TEMP:  47; 6HR MAX TEMP:  55; 6HR PCP:  0.04;

PHILLIPS       PTSUNNY   51  48  88 CALM      29.69R
6HR MIN TEMP:  49; 6HR MAX TEMP:  64; 6HR PCP:  0.04;

TOMAHAWK       CLOUDY    48  46  93 CALM      29.69S
6HR MIN TEMP:  46; 6HR MAX TEMP:  64;

MEDFORD        CLOUDY    49  49  99 E6        29.67F FOG
6HR MIN TEMP:  48; 6HR MAX TEMP:  64; 6HR PCP:  0.10;

MERRILL        RAIN      48  47  94 N14G32    29.73R VSB 1
$$

WIZ029-030-035-036-043>047-040100-
CENTRAL WISCONSIN

CITY           SKY/WX    TMP DP  RH WIND       PRES   REMARKS
WAUSAU         LGT RAIN  54  47  77 N9        29.69R
6HR MIN TEMP:  53; 6HR MAX TEMP:  70; 6HR PCP:  0.04;

MOSINEE        CLOUDY    52  46  82 CALM      29.69R
MARSHFIELD     RAIN      54  45  71 N22G38    29.69R
6HR MIN TEMP:  56; 6HR MAX TEMP:  70; 6HR PCP:  0.01;

STEVENS POINT  HVY RAIN  56  41  56 N15G24    29.69R
6HR MIN TEMP:  56; 6HR MAX TEMP:  67;

WAUPACA        CLOUDY    63  37  38 SW3       29.67F
6HR MIN TEMP:  62; 6HR MAX TEMP:  72;

WAUTOMA        LGT RAIN  61  41  47 W15G26    29.68S
6HR MIN TEMP:  61; 6HR MAX TEMP:  71;

WISC RAPIDS    CLOUDY    61  37  41 SW5       29.65F
6HR MIN TEMP:  61; 6HR MAX TEMP:  70; 6HR PCP: TRACE;

CAMP DOUGLAS   PTSUNNY   64  39  39 W15G22    29.65F
$$

WIZ011>013-019>022-031-037>040-048>050-040100-
NORTHEAST WISCONSIN

CITY           SKY/WX    TMP DP  RH WIND       PRES   REMARKS
ANTIGO         RAIN      46  42  84 NW15G26   29.71R
6HR MIN TEMP:  46; 6HR MAX TEMP:  64; 6HR PCP:  0.05;

SHAWANO        LGT RAIN  55  48  78 N3        29.69F
6HR MIN TEMP:  55; 6HR MAX TEMP:  71; 6HR PCP:  0.03;

OCONTO         CLOUDY    54  49  83 N3        29.68S
6HR MIN TEMP:  54; 6HR MAX TEMP:  71;

STURGEON BAY   CLOUDY    52  45  76 N10       29.71F
6HR MIN TEMP:  52; 6HR MAX TEMP:  68;

GREEN BAY      CLOUDY    58  42  55 NW25G35   29.70R
6HR MIN TEMP:  58; 6HR MAX TEMP:  70;

MANITOWOC      LGT RAIN  65  34  31 W15G24    29.68R
6HR MIN TEMP:  65; 6HR MAX TEMP:  69; 6HR PCP: TRACE;

APPLETON       CLOUDY   N/A N/A N/A W10       29.67R
CLINTONVILLE   CLOUDY    55  43  62 NE3       29.67F
OSHKOSH        LGT RAIN  63  37  38 W12       29.68R
6HR MIN TEMP:  63; 6HR MAX TEMP:  69; 6HR PCP: TRACE;

$$

WIZ032>034-041-042-053>061-040100-
SOUTHWEST WISCONSIN

CITY           SKY/WX    TMP DP  RH WIND       PRES   REMARKS
LA CROSSE      PTSUNNY   69  38  32 W12       29.65F
6HR MIN TEMP:  67; 6HR MAX TEMP:  72;

SPARTA         CLOUDY    66  37  33 W9G22     29.66F
6HR MIN TEMP:  66; 6HR MAX TEMP:  70;

VIROQUA        MOSUNNY   63  35  35 W13G22    29.70F
6HR MIN TEMP:  63; 6HR MAX TEMP:  67;

BOSCOBEL       LGT RAIN  68  37  32 SW10G20   29.71F
6HR MIN TEMP:  67; 6HR MAX TEMP:  71; 6HR PCP: TRACE;

PRAIRIE DU CHI CLOUDY    67  35  30 SW14G20   29.71F
6HR MIN TEMP:  66; 6HR MAX TEMP:  69;

PLATTEVILLE    MOSUNNY   65  39  38 SW13G18   29.75F
6HR MIN TEMP:  64; 6HR MAX TEMP:  67;

$$

WIZ056-057-062-063-064-067-068-040100-
SOUTH CENTRAL WISCONSIN

CITY           SKY/WX    TMP DP  RH WIND       PRES   REMARKS
REEDSBURG      CLOUDY    64  38  38 SW9       29.68F
6HR MIN TEMP:  64; 6HR MAX TEMP:  67;

BARABOO/DELLS  CLOUDY    63  33  31 W13       29.68F
6HR MIN TEMP:  63; 6HR MAX TEMP:  68;

LONE ROCK      CLOUDY    66  37  34 W15G22    29.70F
6HR MIN TEMP:  66; 6HR MAX TEMP:  69;

MINERAL POINT  MOSUNNY   64  34  32 W16G23    29.73F
MADISON        CLOUDY    64  37  36 VRB7      29.70F
6HR MIN TEMP:  63; 6HR MAX TEMP:  68;

MIDDLETON      CLOUDY    64  37  35 W13G18    29.71F
6HR MIN TEMP:  64; 6HR MAX TEMP:  68;

WATERTOWN      CLOUDY    63  40  44 SW10      29.70F
6HR MIN TEMP:  63; 6HR MAX TEMP:  67;

MONROE         CLOUDY    63  36  36 W20G26    29.75F
JANESVILLE     MOCLDY    64  37  36 W13G18    29.74F
$$

WIZ051-052-058>065-066-070>072-040100-
SOUTHEAST WISCONSIN

CITY           SKY/WX    TMP DP  RH WIND       PRES   REMARKS
MILWAUKEE      CLOUDY    65  34  31 W13       29.72F
6HR MIN TEMP:  64; 6HR MAX TEMP:  69;

WAUKESHA       PTCLDY    63  36  36 SW14G21   29.73F
MILWAUKEE/TIMM MOCLDY    64  32  29 W12G18    29.72F
RACINE         CLOUDY    65  36  34 W8        29.74F
6HR MIN TEMP:  64; 6HR MAX TEMP:  69;

BURLINGTON     CLOUDY    62  36  37 W8        29.74S
6HR MIN TEMP:  62; 6HR MAX TEMP:  67;

KENOSHA        CLOUDY    63  39  41 W9G21     29.74F
6HR MIN TEMP:  63; 6HR MAX TEMP:  69;

FOND DU LAC    CLOUDY    64  37  36 W15G24    29.68F
6HR MIN TEMP:  64; 6HR MAX TEMP:  69; 6HR PCP: TRACE;

SHEBOYGAN      CLOUDY    63  37  38 SW10      29.67F
6HR MIN TEMP:  63; 6HR MAX TEMP:  68;

WEST BEND      CLOUDY    63  34  34 SW8       29.69F
JUNEAU         CLOUDY    62  39  42 SW13      29.70F
6HR MIN TEMP:  62; 6HR MAX TEMP:  66;

$$

LSZ147-162-040100-
LAKE SUPERIOR

STATION/POSITION TIME  TEMP    WIND        PRES    WAVE
                       AIR SEA DIR/SP/G            HT/PER
                 (UTC) (F)     (DEG/KT/KT) (MB)    (FT/S)
W MID LAKE BUOY  2350   49 37   CALM  /  2 1006.0R   1/ 4
DEVILS ISLAND    0000   56     340/  4/  5 1006.3R
SAXON HARBOR     2300   49      70/  9/ 14 1005.1F
$$

LMZ867-665-643>646-040100-
LAKE MICHIGAN

STATION/POSITION TIME  TEMP    WIND        PRES    WAVE
                       AIR SEA DIR/SP/G            HT/PER
                 (UTC) (F)     (DEG/KT/KT) (MB)    (FT/S)
CHAMBERS ISLAND  2300   49     310/  3/  6 1006.1
N MID LAKE BUOY  2350   44 39  340/  6/  6 1005.7S   3/ C1F1C2F2C3F3C4F4C5F5C6F6C7F7C8M1C9M2Ca!



USA.gov is the U.S. government's official web portal to all federal, state and local government web resources and services.